Simultaneous Nadir Overpasses (SNOs) Predictions

Prediction of SNOs between AQUA and METOP-A Satellite Orbit:

Table of predicted SNOs for the next 14.0 days since TLE Epoch: 7/13/2012
Index Date (AQUA) Time (AQUA) AQUA Lat,Lon Date (METOP-A) Time (METOP-A) METOP-A Lat,Lon Distance(km) Time Diff (sec)
1 07/13/2012 17:16:06 -73.79, 95.33 07/13/2012 17:15:01 -73.79, 95.40 2.20 65
2 07/13/2012 18:05:35 73.86, -97.19 07/13/2012 18:05:39 73.86, -97.09 2.85 4
3 07/13/2012 18:55:05 -74.09, 69.92 07/13/2012 18:56:16 -74.11, 70.85 28.17 71
4 07/16/2012 12:50:19 -73.77, 161.81 07/16/2012 12:49:21 -73.77, 161.78 0.91 58
5 07/16/2012 13:39:48 73.84, -30.72 07/16/2012 13:39:59 73.84, -30.72 0.22 11
6 07/16/2012 14:29:23 -74.33, 135.80 07/16/2012 14:30:31 -74.34, 137.84 61.19 68
7 07/19/2012 08:24:33 -73.78,-131.79 07/19/2012 08:23:41 -73.81,-131.73 2.94 52
8 07/19/2012 09:14:02 73.86, 35.68 07/19/2012 09:14:19 73.88, 35.77 3.31 17
9 07/19/2012 10:03:42 -74.61,-158.41 07/19/2012 10:04:47 -74.57,-155.15 96.53 65
10 07/22/2012 03:58:46 -73.78, -65.34 07/22/2012 03:58:02 -73.79, -65.35 1.10 44
11 07/22/2012 04:48:15 73.86, 102.12 07/22/2012 04:48:40 73.86, 102.15 1.15 25
12 07/24/2012 23:32:58 -73.81, 1.04 07/24/2012 23:32:21 -73.82, 1.15 3.57 37
13 07/25/2012 00:22:26 73.85, 168.60 07/25/2012 00:23:00 73.85, 168.53 2.19 34




NCC Satellite Simultaneous Nadir Overpasses (SNOs) Prediction Service
